User: anonymous   Login
Location: Unspecified
(0.0000°N, 0.0000°E)
Time: 21:22:39
(UTC+02:00)
Language:

Cosmos 2279 Rocket - Orbit

View from above orbital plane
View from above orbital plane
View from above satellite
View from above satellite

Ground track
Ground track

The orbit data is extracted from the following two-line orbital elements,

1 23093U 94024B   15236.94948782 -.00000091 +00000-0 -10614-3 0  9991
2 23093 082.9439 246.9900 0011377 064.4048 295.8284 13.77672286540005
Epoch (UTC): 24 August 2015 22:47:15
Eccentricity: 0.0011377
inclination: 82.9439°
perigee height: 964 km
apogee height: 980 km
right ascension of ascending node: 246.9900°
argument of perigee: 64.4048°
revolutions per day: 13.77672286
mean anomaly at epoch: 295.8284°
orbit number at epoch: 54000

The dashed part of the orbit path shows where the satellite is in the earth's shadow,  

DLR